Location: Unspecified
(0.0000°N, 0.0000°E)
Time: 01:12:51
(UTC+01:00)

Cosmos 2228 - Visible Passes

Search period start: 05 March 2015 00:00
Search period end: 15 March 2015 00:00
Orbit: 593 x 623 km, 82.5° (Epoch: 04 March)

Date Brightness Start Highest point End Pass type
(mag) Time Alt. Az. Time Alt. Az. Time Alt. Az.
07 Mar 5.0 19:36:56 10° SSW 19:40:49 33° W 19:44:38 10° NNW visible
08 Mar 6.5 06:08:29 10° ENE 06:10:10 12° E 06:12:10 10° ESE visible
08 Mar 6.2 19:51:58 10° SW 19:54:46 17° W 19:57:23 10° NW visible
09 Mar 5.7 06:20:37 10° NNE 06:24:10 25° E 06:27:51 10° SE visible
10 Mar 4.1 06:33:50 10° N 06:38:06 51° E 06:42:25 10° SSE visible
13 Mar 6.0 05:39:31 10° NE 05:42:21 18° E 05:45:24 10° SE visible
14 Mar 4.8 05:52:19 10° NNE 05:56:19 35° E 06:00:22 10° SSE visible
